Regional Weather Roundup
Issued by NWS

Home | Current Version | Previous Version | Graphics & Text | Print | Product List | Glossary On
Versions: 1 2 3 4 5 6 7 8 9 10 11 12 13 14 15 16 17 18 19 20 21 22 23 24 25 26 27 28 29 30 31 32 33 34 35 36 37 38 39 40 41 42 43 44 45 46 47 48 49 50
000
ASUS43 KLMK 281802
RWRKY
KENTUCKY REGIONAL WEATHER ROUNDUP
NATIONAL WEATHER SERVICE LOUISVILLE KY
200 PM EDT SUN MAY 28 2017

NOTE "FAIR" INDICATES FEW OR NO CLOUDS BELOW 12,000 FEET
WITH NO SIGNIFICANT WEATHER AND/OR OBSTRUCTIONS TO VISIBILITY.

KYZ001>023-026-027-061>063-070>075-281900-
WESTERN AND SOUTH CENTRAL KENTUCKY

CITY           SKY/WX    TMP DP  RH WIND       PRES   REMARKS
PADUCAH        CLOUDY    72  62  71 W18G26    29.87R
HENDERSON      CLOUDY    70  63  78 W14G20    29.84S
OWENSBORO      CLOUDY    70  63  78 W15G22    29.84S
HOPKINSVILLE   PTSUNNY   74  63  68 SW20      29.87F
BOWLING GREEN  CLOUDY    74  65  73 W10       29.88R
GLASGOW        NOT AVBL
$$

KYZ024-025-028>034-038-045-046-053-281900-
NORTH CENTRAL KENTUCKY

CITY           SKY/WX    TMP DP  RH WIND       PRES   REMARKS
LOUISVILLE/SDF CLOUDY    74  63  68 SW10      29.82S
LOUISVILLE/LOU CLOUDY    75  64  68 W13G18    29.82S
FORT KNOX      CLOUDY    74  64  70 SW14      29.83S
$$

KYZ035>037-039>044-047>052-055>060-089>105-281900-
NORTHEAST KENTUCKY

CITY           SKY/WX    TMP DP  RH WIND       PRES   REMARKS
LEXINGTON      MOSUNNY   76  61  59 W15G21    29.83F
COVINGTON      CLOUDY    72  62  71 W12G22    29.80F
FRANKFORT      MOSUNNY   74  61  63 W10       29.81F
$$

KYZ054-064>069-076>088-106>120-281900-
SOUTHEAST KENTUCKY

CITY           SKY/WX    TMP DP  RH WIND       PRES   REMARKS
JACKSON        CLOUDY    69  62  78 VRB5      29.88R
LONDON         CLOUDY    73  59  61 W16       29.89S
SOMERSET       CLOUDY    68  59  73 W10G18    29.90S
MIDDLESBORO    PTSUNNY   74  61  63 S8        29.90F
MONTICELLO     MOCLDY    72  62  71 W14       29.90F
$$




USA.gov is the U.S. government's official web portal to all federal, state and local government web resources and services.